Time,TemperatureF,DewpointF,PressureIn,WindDirection,WindDirectionDegrees,WindSpeedMPH,WindSpeedGustMPH,Humidity,HourlyPrecipIn,Conditions,Clouds,dailyrainin,SoftwareType,DateUTC
2013-05-23 00:00:00,58.4,47.8,30.03,East,82,7.0,13.0,68,0.00,,,0.00,VWS V14.01,2013-05-23 05:00:00,
2013-05-23 00:01:00,55.1,47.2,30.05,East,80,6.0,6.0,75,0.00,,,0.00,VWS V14.01,2013-05-23 05:01:00,
2013-05-23 00:06:00,54.9,47.4,30.05,ENE,65,1.0,9.0,76,0.00,,,0.00,VWS V14.01,2013-05-23 05:06:00,
2013-05-23 00:11:00,54.6,47.1,30.05,NE,52,5.0,9.0,76,0.00,,,0.00,VWS V14.01,2013-05-23 05:11:00,
2013-05-23 00:15:00,57.5,47.7,30.03,ENE,63,2.0,14.0,70,0.00,,,0.00,VWS V14.01,2013-05-23 05:15:00,
2013-05-23 00:16:00,54.5,47.0,30.05,NE,53,4.0,9.0,76,0.00,,,0.00,VWS V14.01,2013-05-23 05:16:00,
2013-05-23 00:21:00,54.5,47.0,30.05,NE,46,6.0,9.0,76,0.00,,,0.00,VWS V14.01,2013-05-23 05:21:00,
2013-05-23 00:26:00,54.5,46.6,30.05,ENE,60,2.0,9.0,75,0.00,,,0.00,VWS V14.01,2013-05-23 05:26:00,
2013-05-23 00:30:00,56.7,47.3,30.03,ENE,66,3.0,11.0,71,0.00,,,0.00,VWS V14.01,2013-05-23 05:30:00,
2013-05-23 00:31:00,54.5,46.6,30.06,ENE,61,11.0,11.0,75,0.00,,,0.00,VWS V14.01,2013-05-23 05:31:00,
2013-05-23 00:36:00,54.6,46.7,30.06,NE,38,3.0,11.0,75,0.00,,,0.00,VWS V14.01,2013-05-23 05:36:00,
2013-05-23 00:41:00,54.4,46.5,30.06,ENE,59,8.0,13.0,75,0.00,,,0.00,VWS V14.01,2013-05-23 05:41:00,
2013-05-23 00:45:00,55.9,47.3,30.04,ENE,62,3.0,11.0,73,0.00,,,0.00,VWS V14.01,2013-05-23 05:45:00,
2013-05-23 00:46:00,54.3,46.5,30.06,NE,51,2.0,3.0,75,0.00,,,0.00,VWS V14.01,2013-05-23 05:46:00,
2013-05-23 00:51:00,54.0,46.2,30.06,NE,43,2.0,9.0,75,0.00,,,0.00,VWS V14.01,2013-05-23 05:51:00,
2013-05-23 00:55:00,53.8,46.3,30.06,NNE,33,2.0,9.0,76,0.00,,,0.00,VWS V14.01,2013-05-23 05:55:00,
2013-05-23 01:00:00,53.4,46.3,30.07,NE,44,3.0,3.0,77,0.00,,,0.00,VWS V14.01,2013-05-23 06:00:00,
2013-05-23 01:05:00,53.0,46.2,30.07,NE,39,4.0,6.0,78,0.00,,,0.00,VWS V14.01,2013-05-23 06:05:00,
2013-05-23 01:10:00,52.7,45.9,30.07,NE,47,1.0,6.0,78,0.00,,,0.00,VWS V14.01,2013-05-23 06:10:00,
2013-05-23 01:15:00,52.3,45.9,30.07,NE,34,0.0,1.0,79,0.00,,,0.00,VWS V14.01,2013-05-23 06:15:00,
2013-05-23 01:20:00,52.1,46.0,30.07,NE,34,0.0,4.0,80,0.00,,,0.00,VWS V14.01,2013-05-23 06:20:00,
2013-05-23 01:25:00,51.9,46.2,30.07,NE,50,1.0,5.0,81,0.00,,,0.00,VWS V14.01,2013-05-23 06:25:00,
2013-05-23 01:30:00,51.5,45.8,30.07,NNE,32,2.0,4.0,81,0.00,,,0.00,VWS V14.01,2013-05-23 06:30:00,
2013-05-23 01:35:00,51.4,46.0,30.08,NE,45,2.0,8.0,82,0.00,,,0.00,VWS V14.01,2013-05-23 06:35:00,
2013-05-23 01:40:00,51.3,45.6,30.08,ENE,61,4.0,8.0,81,0.00,,,0.00,VWS V14.01,2013-05-23 06:40:00,
2013-05-23 01:45:00,51.2,45.5,30.08,NE,40,1.0,4.0,81,0.00,,,0.00,VWS V14.01,2013-05-23 06:45:00,
2013-05-23 01:50:00,51.0,45.3,30.08,NE,45,2.0,5.0,81,0.00,,,0.00,VWS V14.01,2013-05-23 06:50:00,
2013-05-23 01:55:00,50.9,45.2,30.08,NE,49,2.0,7.0,81,0.00,,,0.00,VWS V14.01,2013-05-23 06:55:00,
2013-05-23 02:00:00,50.7,45.0,30.08,NE,42,3.0,4.0,81,0.00,,,0.00,VWS V14.01,2013-05-23 07:00:00,
2013-05-23 02:05:00,50.5,44.8,30.08,NE,40,2.0,6.0,81,0.00,,,0.00,VWS V14.01,2013-05-23 07:05:00,
2013-05-23 02:10:00,50.4,45.0,30.08,NE,38,1.0,6.0,82,0.00,,,0.00,VWS V14.01,2013-05-23 07:10:00,
2013-05-23 02:15:00,50.2,44.8,30.07,NE,38,2.0,2.0,82,0.00,,,0.00,VWS V14.01,2013-05-23 07:15:00,
2013-05-23 02:20:00,50.1,44.7,30.08,NE,46,4.0,6.0,82,0.00,,,0.00,VWS V14.01,2013-05-23 07:20:00,
2013-05-23 02:25:00,49.9,44.5,30.08,NE,42,1.0,6.0,82,0.00,,,0.00,VWS V14.01,2013-05-23 07:25:00,
2013-05-23 02:30:00,49.7,44.3,30.08,NE,44,0.0,1.0,82,0.00,,,0.00,VWS V14.01,2013-05-23 07:30:00,
2013-05-23 02:35:00,49.6,44.2,30.08,NE,38,1.0,5.0,82,0.00,,,0.00,VWS V14.01,2013-05-23 07:35:00,
2013-05-23 02:40:00,49.4,44.0,30.08,NE,38,3.0,6.0,82,0.00,,,0.00,VWS V14.01,2013-05-23 07:40:00,
2013-05-23 02:45:00,49.2,43.8,30.08,NNE,28,4.0,4.0,82,0.00,,,0.00,VWS V14.01,2013-05-23 07:45:00,
2013-05-23 02:50:00,49.1,43.8,30.08,NE,38,2.0,6.0,82,0.00,,,0.00,VWS V14.01,2013-05-23 07:50:00,
2013-05-23 02:55:00,49.0,43.7,30.08,NE,38,1.0,6.0,82,0.00,,,0.00,VWS V14.01,2013-05-23 07:55:00,
2013-05-23 03:00:00,48.8,43.5,30.08,NE,38,0.0,0.0,82,0.00,,,0.00,VWS V14.01,2013-05-23 08:00:00,
2013-05-23 03:05:00,48.7,43.4,30.08,NE,38,0.0,0.0,82,0.00,,,0.00,VWS V14.01,2013-05-23 08:05:00,
2013-05-23 03:10:00,48.4,43.1,30.08,NE,38,0.0,1.0,82,0.00,,,0.00,VWS V14.01,2013-05-23 08:10:00,
2013-05-23 03:15:00,48.2,43.2,30.08,NE,38,0.0,0.0,83,0.00,,,0.00,VWS V14.01,2013-05-23 08:15:00,
2013-05-23 03:20:00,48.0,43.0,30.08,NE,38,0.0,1.0,83,0.00,,,0.00,VWS V14.01,2013-05-23 08:20:00,
2013-05-23 03:25:00,47.9,42.9,30.08,North,5,2.0,4.0,83,0.00,,,0.00,VWS V14.01,2013-05-23 08:25:00,
2013-05-23 03:30:00,47.7,43.0,30.08,North,5,4.0,4.0,84,0.00,,,0.00,VWS V14.01,2013-05-23 08:30:00,
2013-05-23 03:35:00,47.4,42.7,30.08,North,5,0.0,4.0,84,0.00,,,0.00,VWS V14.01,2013-05-23 08:35:00,
2013-05-23 03:40:00,47.2,42.5,30.08,North,5,0.0,4.0,84,0.00,,,0.00,VWS V14.01,2013-05-23 08:40:00,
2013-05-23 03:45:00,46.9,42.2,30.08,North,5,0.0,0.0,84,0.00,,,0.00,VWS V14.01,2013-05-23 08:45:00,
2013-05-23 03:50:00,46.7,42.3,30.08,North,5,1.0,1.0,85,0.00,,,0.00,VWS V14.01,2013-05-23 08:50:00,
2013-05-23 03:55:00,46.5,42.2,30.08,North,5,0.0,2.0,85,0.00,,,0.00,VWS V14.01,2013-05-23 08:55:00,
2013-05-23 04:00:00,46.3,42.3,30.08,North,5,0.0,0.0,86,0.00,,,0.00,VWS V14.01,2013-05-23 09:00:00,
2013-05-23 04:05:00,46.2,42.2,30.09,North,5,0.0,0.0,86,0.00,,,0.00,VWS V14.01,2013-05-23 09:05:00,
2013-05-23 04:10:00,46.0,42.0,30.09,North,5,0.0,0.0,86,0.00,,,0.00,VWS V14.01,2013-05-23 09:10:00,
2013-05-23 04:15:00,45.9,41.9,30.09,North,5,0.0,0.0,86,0.00,,,0.00,VWS V14.01,2013-05-23 09:15:00,
2013-05-23 04:20:00,45.7,42.0,30.09,North,5,0.0,0.0,87,0.00,,,0.00,VWS V14.01,2013-05-23 09:20:00,
2013-05-23 04:25:00,45.6,41.9,30.09,North,5,0.0,0.0,87,0.00,,,0.00,VWS V14.01,2013-05-23 09:25:00,
2013-05-23 04:30:00,45.6,42.2,30.09,North,5,0.0,0.0,88,0.00,,,0.00,VWS V14.01,2013-05-23 09:30:00,
2013-05-23 04:35:00,45.4,42.0,30.09,North,5,0.0,0.0,88,0.00,,,0.00,VWS V14.01,2013-05-23 09:35:00,
2013-05-23 04:40:00,45.3,41.9,30.10,North,5,0.0,0.0,88,0.00,,,0.00,VWS V14.01,2013-05-23 09:40:00,
2013-05-23 04:45:00,45.2,41.8,30.10,North,5,0.0,0.0,88,0.00,,,0.00,VWS V14.01,2013-05-23 09:45:00,
2013-05-23 04:50:00,45.0,41.6,30.10,North,5,0.0,0.0,88,0.00,,,0.00,VWS V14.01,2013-05-23 09:50:00,
2013-05-23 04:55:00,44.9,41.5,30.10,North,5,0.0,0.0,88,0.00,,,0.00,VWS V14.01,2013-05-23 09:55:00,
2013-05-23 05:00:00,44.7,41.3,30.10,North,5,0.0,0.0,88,0.00,,,0.00,VWS V14.01,2013-05-23 10:00:00,
2013-05-23 05:05:00,44.6,42.6,30.10,North,5,0.0,0.0,93,0.00,,,0.00,VWS V14.01,2013-05-23 10:05:00,
2013-05-23 05:10:00,44.5,41.4,30.10,North,5,0.0,0.0,89,0.00,,,0.00,VWS V14.01,2013-05-23 10:10:00,
2013-05-23 05:15:00,44.3,41.2,30.10,North,5,0.0,0.0,89,0.00,,,0.00,VWS V14.01,2013-05-23 10:15:00,
2013-05-23 05:20:00,44.1,41.0,30.10,North,5,0.0,0.0,89,0.00,,,0.00,VWS V14.01,2013-05-23 10:20:00,
2013-05-23 05:25:00,44.0,40.9,30.10,North,5,0.0,0.0,89,0.00,,,0.00,VWS V14.01,2013-05-23 10:25:00,
2013-05-23 05:30:00,45.6,42.2,30.09,North,5,0.0,0.0,88,0.00,,,0.00,VWS V14.01,2013-05-23 10:30:00,
2013-05-23 05:31:00,43.8,40.7,30.10,North,5,0.0,0.0,89,0.00,,,0.00,VWS V14.01,2013-05-23 10:31:00,
2013-05-23 05:35:00,43.7,40.9,30.10,North,5,0.0,1.0,90,0.00,,,0.00,VWS V14.01,2013-05-23 10:35:00,
2013-05-23 05:40:00,43.6,40.8,30.10,North,5,2.0,3.0,90,0.00,,,0.00,VWS V14.01,2013-05-23 10:40:00,
2013-05-23 05:45:00,43.7,40.9,30.10,North,5,2.0,3.0,90,0.00,,,0.00,VWS V14.01,2013-05-23 10:45:00,
2013-05-23 05:50:00,43.8,41.0,30.10,North,5,2.0,3.0,90,0.00,,,0.00,VWS V14.01,2013-05-23 10:50:00,
2013-05-23 05:55:00,44.0,40.9,30.10,NE,34,2.0,5.0,89,0.00,,,0.00,VWS V14.01,2013-05-23 10:55:00,
2013-05-23 06:00:00,44.0,40.9,30.10,NE,34,2.0,2.0,89,0.00,,,0.00,VWS V14.01,2013-05-23 11:00:00,
2013-05-23 06:05:00,44.0,40.6,30.11,NE,34,0.0,4.0,88,0.00,,,0.00,VWS V14.01,2013-05-23 11:05:00,
2013-05-23 06:10:00,44.0,40.6,30.11,NE,34,0.0,4.0,88,0.00,,,0.00,VWS V14.01,2013-05-23 11:10:00,
2013-05-23 06:15:00,44.0,40.6,30.11,NE,34,0.0,0.0,88,0.00,,,0.00,VWS V14.01,2013-05-23 11:15:00,
2013-05-23 06:20:00,44.1,40.7,30.11,NE,34,1.0,3.0,88,0.00,,,0.00,VWS V14.01,2013-05-23 11:20:00,
2013-05-23 06:25:00,44.2,40.8,30.11,NE,34,0.0,3.0,88,0.00,,,0.00,VWS V14.01,2013-05-23 11:25:00,
2013-05-23 06:30:00,44.3,40.6,30.11,NE,34,0.0,0.0,87,0.00,,,0.00,VWS V14.01,2013-05-23 11:30:00,
2013-05-23 06:35:00,44.5,40.8,30.11,NE,34,0.0,3.0,87,0.00,,,0.00,VWS V14.01,2013-05-23 11:35:00,
2013-05-23 06:40:00,44.7,40.7,30.11,NE,34,0.0,3.0,86,0.00,,,0.00,VWS V14.01,2013-05-23 11:40:00,
2013-05-23 06:45:00,45.0,41.0,30.11,NE,34,0.0,0.0,86,0.00,,,0.00,VWS V14.01,2013-05-23 11:45:00,
2013-05-23 06:50:00,45.4,41.4,30.11,NE,49,2.0,5.0,86,0.00,,,0.00,VWS V14.01,2013-05-23 11:50:00,
2013-05-23 06:55:00,45.8,41.5,30.11,NE,49,0.0,5.0,85,0.00,,,0.00,VWS V14.01,2013-05-23 11:55:00,
2013-05-23 07:00:00,46.3,41.7,30.12,ENE,57,0.0,0.0,84,0.00,,,0.00,VWS V14.01,2013-05-23 12:00:00,
2013-05-23 07:05:00,46.8,41.8,30.12,ENE,57,2.0,3.0,83,0.00,,,0.00,VWS V14.01,2013-05-23 12:05:00,
2013-05-23 07:10:00,47.2,41.9,30.12,ENE,70,3.0,5.0,82,0.00,,,0.00,VWS V14.01,2013-05-23 12:10:00,
2013-05-23 07:15:00,47.4,41.8,30.12,East,95,5.0,5.0,81,0.00,,,0.00,VWS V14.01,2013-05-23 12:15:00,
2013-05-23 07:20:00,47.5,41.9,30.12,ENE,67,4.0,9.0,81,0.00,,,0.00,VWS V14.01,2013-05-23 12:20:00,
2013-05-23 07:25:00,47.5,41.5,30.12,East,82,3.0,9.0,80,0.00,,,0.00,VWS V14.01,2013-05-23 12:25:00,
2013-05-23 07:30:00,47.7,41.8,30.12,East,90,8.0,8.0,80,0.00,,,0.00,VWS V14.01,2013-05-23 12:30:00,
2013-05-23 07:35:00,47.7,41.4,30.12,East,85,3.0,9.0,79,0.00,,,0.00,VWS V14.01,2013-05-23 12:35:00,
2013-05-23 07:40:00,47.8,41.8,30.12,East,92,2.0,9.0,80,0.00,,,0.00,VWS V14.01,2013-05-23 12:40:00,
2013-05-23 07:45:00,48.0,42.0,30.12,East,98,7.0,8.0,80,0.00,,,0.00,VWS V14.01,2013-05-23 12:45:00,
2013-05-23 07:50:00,48.1,41.8,30.12,ENE,64,5.0,9.0,79,0.00,,,0.00,VWS V14.01,2013-05-23 12:50:00,
2013-05-23 07:55:00,48.3,42.0,30.12,ENE,63,3.0,9.0,79,0.00,,,0.00,VWS V14.01,2013-05-23 12:55:00,
2013-05-23 08:00:00,48.7,42.4,30.12,ESE,123,11.0,11.0,79,0.00,,,0.00,VWS V14.01,2013-05-23 13:00:00,
2013-05-23 08:05:00,48.6,42.0,30.12,East,90,6.0,11.0,78,0.00,,,0.00,VWS V14.01,2013-05-23 13:05:00,
2013-05-23 08:10:00,48.7,42.4,30.12,East,96,7.0,11.0,79,0.00,,,0.00,VWS V14.01,2013-05-23 13:10:00,
2013-05-23 08:15:00,49.3,43.0,30.13,East,80,2.0,3.0,79,0.00,,,0.00,VWS V14.01,2013-05-23 13:15:00,
2013-05-23 08:20:00,49.8,43.1,30.12,East,82,3.0,10.0,78,0.00,,,0.00,VWS V14.01,2013-05-23 13:20:00,
2013-05-23 08:25:00,50.0,43.0,30.12,ENE,69,7.0,13.0,77,0.00,,,0.00,VWS V14.01,2013-05-23 13:25:00,
2013-05-23 08:30:00,50.1,43.1,30.12,ESE,103,5.0,5.0,77,0.00,,,0.00,VWS V14.01,2013-05-23 13:30:00,
2013-05-23 08:35:00,50.5,43.1,30.12,ENE,74,5.0,11.0,76,0.00,,,0.00,VWS V14.01,2013-05-23 13:35:00,
2013-05-23 08:40:00,50.8,43.4,30.12,ENE,70,8.0,14.0,76,0.00,,,0.00,VWS V14.01,2013-05-23 13:40:00,
2013-05-23 08:45:00,51.2,43.5,30.12,ENE,77,5.0,14.0,75,0.00,,,0.00,VWS V14.01,2013-05-23 13:45:00,
2013-05-23 08:50:00,51.5,43.8,30.12,East,80,6.0,13.0,75,0.00,,,0.00,VWS V14.01,2013-05-23 13:50:00,
2013-05-23 08:55:00,51.5,43.4,30.12,East,96,6.0,13.0,74,0.00,,,0.00,VWS V14.01,2013-05-23 13:55:00,
2013-05-23 09:00:00,51.9,43.4,30.12,ENE,74,4.0,13.0,73,0.00,,,0.00,VWS V14.01,2013-05-23 14:00:00,
2013-05-23 09:05:00,52.3,43.8,30.13,East,90,1.0,13.0,73,0.00,,,0.00,VWS V14.01,2013-05-23 14:05:00,
2013-05-23 09:10:00,52.8,43.9,30.12,East,96,6.0,15.0,72,0.00,,,0.00,VWS V14.01,2013-05-23 14:10:00,
2013-05-23 09:15:00,52.9,43.7,30.12,SE,134,8.0,8.0,71,0.00,,,0.00,VWS V14.01,2013-05-23 14:15:00,
2013-05-23 09:20:00,53.4,44.5,30.13,ESE,113,10.0,11.0,72,0.00,,,0.00,VWS V14.01,2013-05-23 14:20:00,
2013-05-23 09:25:00,54.2,44.9,30.12,SSE,148,9.0,13.0,71,0.00,,,0.00,VWS V14.01,2013-05-23 14:25:00,
2013-05-23 09:30:00,54.5,44.4,30.12,East,98,7.0,13.0,69,0.00,,,0.00,VWS V14.01,2013-05-23 14:30:00,
2013-05-23 09:35:00,54.8,44.7,30.12,ESE,123,5.0,11.0,69,0.00,,,0.00,VWS V14.01,2013-05-23 14:35:00,
2013-05-23 09:40:00,55.0,44.5,30.12,East,86,3.0,13.0,68,0.00,,,0.00,VWS V14.01,2013-05-23 14:40:00,
2013-05-23 09:45:00,55.4,44.5,30.12,ESE,111,3.0,13.0,67,0.00,,,0.00,VWS V14.01,2013-05-23 14:45:00,
2013-05-23 09:50:00,55.5,43.8,30.12,ESE,105,8.0,16.0,65,0.00,,,0.00,VWS V14.01,2013-05-23 14:50:00,
2013-05-23 09:55:00,55.9,44.6,30.12,East,82,9.0,16.0,66,0.00,,,0.00,VWS V14.01,2013-05-23 14:55:00,
2013-05-23 10:00:00,56.0,44.3,30.12,NNE,15,7.0,17.0,65,0.00,,,0.00,VWS V14.01,2013-05-23 15:00:00,
2013-05-23 10:05:00,56.4,44.7,30.12,SE,136,7.0,16.0,65,0.00,,,0.00,VWS V14.01,2013-05-23 15:05:00,
2013-05-23 10:10:00,56.8,44.6,30.12,ESE,122,11.0,16.0,64,0.00,,,0.00,VWS V14.01,2013-05-23 15:10:00,
2013-05-23 10:15:00,57.1,44.5,30.12,SE,142,5.0,16.0,63,0.00,,,0.00,VWS V14.01,2013-05-23 15:15:00,
2013-05-23 10:20:00,57.4,44.4,30.12,East,88,6.0,16.0,62,0.00,,,0.00,VWS V14.01,2013-05-23 15:20:00,
2013-05-23 10:25:00,57.8,44.3,30.12,ENE,74,5.0,16.0,61,0.00,,,0.00,VWS V14.01,2013-05-23 15:25:00,
2013-05-23 10:30:00,58.3,43.9,30.12,SE,140,7.0,16.0,59,0.00,,,0.00,VWS V14.01,2013-05-23 15:30:00,
2013-05-23 10:35:00,58.6,43.8,30.12,SE,134,7.0,17.0,58,0.00,,,0.00,VWS V14.01,2013-05-23 15:35:00,
2013-05-23 10:40:00,59.0,44.6,30.12,East,99,6.0,17.0,59,0.00,,,0.00,VWS V14.01,2013-05-23 15:40:00,
2013-05-23 10:45:00,59.3,44.4,30.11,East,98,8.0,17.0,58,0.00,,,0.00,VWS V14.01,2013-05-23 15:45:00,
2013-05-23 10:50:00,59.6,44.2,30.12,East,99,6.0,23.0,57,0.00,,,0.00,VWS V14.01,2013-05-23 15:50:00,
2013-05-23 10:55:00,59.9,44.5,30.12,ESE,104,4.0,23.0,57,0.00,,,0.00,VWS V14.01,2013-05-23 15:55:00,
2013-05-23 11:00:00,60.8,44.9,30.12,SE,126,8.0,23.0,56,0.00,,,0.00,VWS V14.01,2013-05-23 16:00:00,
2013-05-23 11:05:00,60.7,44.3,30.11,ESE,117,8.0,16.0,55,0.00,,,0.00,VWS V14.01,2013-05-23 16:05:00,
2013-05-23 11:10:00,60.8,44.4,30.11,ESE,107,11.0,16.0,55,0.00,,,0.00,VWS V14.01,2013-05-23 16:10:00,
2013-05-23 11:15:00,60.8,42.9,30.11,ESE,113,8.0,17.0,52,0.00,,,0.00,VWS V14.01,2013-05-23 16:15:00,
2013-05-23 11:20:00,60.8,43.9,30.11,SSE,159,8.0,15.0,54,0.00,,,0.00,VWS V14.01,2013-05-23 16:20:00,
2013-05-23 11:25:00,61.5,44.6,30.11,East,96,7.0,15.0,54,0.00,,,0.00,VWS V14.01,2013-05-23 16:25:00,
2013-05-23 11:30:00,61.8,42.8,30.11,East,87,8.0,16.0,50,0.00,,,0.00,VWS V14.01,2013-05-23 16:30:00,
2013-05-23 11:35:00,61.5,42.5,30.11,East,87,7.0,19.0,50,0.00,,,0.00,VWS V14.01,2013-05-23 16:35:00,
2013-05-23 11:40:00,61.8,43.3,30.11,East,88,10.0,19.0,51,0.00,,,0.00,VWS V14.01,2013-05-23 16:40:00,
2013-05-23 11:45:00,61.7,42.7,30.11,ENE,74,13.0,19.0,50,0.00,,,0.00,VWS V14.01,2013-05-23 16:45:00,
2013-05-23 11:50:00,61.5,42.5,30.11,East,87,11.0,19.0,50,0.00,,,0.00,VWS V14.01,2013-05-23 16:50:00,
2013-05-23 11:55:00,61.6,42.6,30.11,East,92,14.0,19.0,50,0.00,,,0.00,VWS V14.01,2013-05-23 16:55:00,
2013-05-23 12:00:00,61.8,42.8,30.11,ENE,67,13.0,19.0,50,0.00,,,0.00,VWS V14.01,2013-05-23 17:00:00,
2013-05-23 12:05:00,62.4,44.4,30.10,ESE,113,11.0,13.0,52,0.00,,,0.00,VWS V14.01,2013-05-23 17:05:00,
2013-05-23 12:10:00,63.1,44.5,30.10,East,88,5.0,15.0,51,0.00,,,0.00,VWS V14.01,2013-05-23 17:10:00,
2013-05-23 12:15:00,63.0,43.9,30.10,East,101,8.0,15.0,50,0.00,,,0.00,VWS V14.01,2013-05-23 17:15:00,
2013-05-23 12:20:00,63.1,44.0,30.10,SE,126,6.0,19.0,50,0.00,,,0.00,VWS V14.01,2013-05-23 17:20:00,
2013-05-23 12:25:00,63.1,43.0,30.10,East,85,10.0,19.0,48,0.00,,,0.00,VWS V14.01,2013-05-23 17:25:00,
2013-05-23 12:30:00,62.7,42.6,30.10,East,81,13.0,20.0,48,0.00,,,0.00,VWS V14.01,2013-05-23 17:30:00,
2013-05-23 12:35:00,62.5,42.4,30.10,ESE,119,5.0,17.0,48,0.00,,,0.00,VWS V14.01,2013-05-23 17:35:00,
2013-05-23 12:40:00,62.8,43.2,30.10,ESE,113,15.0,17.0,49,0.00,,,0.00,VWS V14.01,2013-05-23 17:40:00,
2013-05-23 12:45:00,63.8,45.7,30.10,East,96,5.0,17.0,52,0.00,,,0.00,VWS V14.01,2013-05-23 17:45:00,
2013-05-23 12:50:00,64.1,43.9,30.10,East,79,10.0,17.0,48,0.00,,,0.00,VWS V14.01,2013-05-23 17:50:00,
2013-05-23 12:55:00,63.7,43.0,30.10,East,94,15.0,17.0,47,0.00,,,0.00,VWS V14.01,2013-05-23 17:55:00,
2013-05-23 13:00:00,63.7,43.0,30.09,ESE,106,7.0,17.0,47,0.00,,,0.00,VWS V14.01,2013-05-23 18:00:00,
2013-05-23 13:05:00,63.7,43.5,30.09,East,96,6.0,16.0,48,0.00,,,0.00,VWS V14.01,2013-05-23 18:05:00,
2013-05-23 13:10:00,64.2,44.0,30.09,East,95,11.0,16.0,48,0.00,,,0.00,VWS V14.01,2013-05-23 18:10:00,
2013-05-23 13:15:00,64.1,43.3,30.09,SE,136,12.0,18.0,47,0.00,,,0.00,VWS V14.01,2013-05-23 18:15:00,
2013-05-23 13:20:00,63.9,43.7,30.09,ENE,72,12.0,17.0,48,0.00,,,0.00,VWS V14.01,2013-05-23 18:20:00,
2013-05-23 13:25:00,64.1,43.3,30.09,ESE,120,13.0,18.0,47,0.00,,,0.00,VWS V14.01,2013-05-23 18:25:00,
2013-05-23 13:30:00,64.3,43.5,30.09,East,97,9.0,18.0,47,0.00,,,0.00,VWS V14.01,2013-05-23 18:30:00,
2013-05-23 13:35:00,64.4,43.0,30.09,East,88,8.0,19.0,46,0.00,,,0.00,VWS V14.01,2013-05-23 18:35:00,
2013-05-23 13:40:00,64.5,44.2,30.09,East,90,8.0,19.0,48,0.00,,,0.00,VWS V14.01,2013-05-23 18:40:00,
2013-05-23 13:45:00,65.2,43.8,30.09,East,93,9.0,19.0,46,0.00,,,0.00,VWS V14.01,2013-05-23 18:45:00,
2013-05-23 13:50:00,64.9,43.5,30.09,ESE,110,16.0,18.0,46,0.00,,,0.00,VWS V14.01,2013-05-23 18:50:00,
2013-05-23 13:55:00,65.0,43.0,30.09,East,85,10.0,18.0,45,0.00,,,0.00,VWS V14.01,2013-05-23 18:55:00,
2013-05-23 14:00:00,64.6,43.2,30.09,East,98,6.0,18.0,46,0.00,,,0.00,VWS V14.01,2013-05-23 19:00:00,
2013-05-23 14:05:00,64.8,44.0,30.09,East,96,9.0,14.0,47,0.00,,,0.00,VWS V14.01,2013-05-23 19:05:00,
2013-05-23 14:10:00,65.7,45.3,30.09,East,88,7.0,15.0,48,0.00,,,0.00,VWS V14.01,2013-05-23 19:10:00,
2013-05-23 14:15:00,66.0,43.9,30.08,East,101,11.0,15.0,45,0.00,,,0.00,VWS V14.01,2013-05-23 19:15:00,
2013-05-23 14:20:00,65.5,42.8,30.08,ENE,62,4.0,21.0,44,0.00,,,0.00,VWS V14.01,2013-05-23 19:20:00,
2013-05-23 14:25:00,65.7,43.0,30.08,East,90,9.0,21.0,44,0.00,,,0.00,VWS V14.01,2013-05-23 19:25:00,
2013-05-23 14:30:00,65.7,42.4,30.08,East,87,9.0,21.0,43,0.00,,,0.00,VWS V14.01,2013-05-23 19:30:00,
2013-05-23 14:35:00,65.4,42.2,30.08,East,100,11.0,17.0,43,0.00,,,0.00,VWS V14.01,2013-05-23 19:35:00,
2013-05-23 14:40:00,65.5,42.2,30.08,ENE,71,13.0,17.0,43,0.00,,,0.00,VWS V14.01,2013-05-23 19:40:00,
2013-05-23 14:45:00,65.4,40.9,30.07,ESE,121,7.0,17.0,41,0.00,,,0.00,VWS V14.01,2013-05-23 19:45:00,
2013-05-23 14:50:00,65.4,41.5,30.07,ENE,65,7.0,17.0,42,0.00,,,0.00,VWS V14.01,2013-05-23 19:50:00,
2013-05-23 14:55:00,65.7,41.8,30.07,ESE,113,12.0,17.0,42,0.00,,,0.00,VWS V14.01,2013-05-23 19:55:00,
2013-05-23 15:00:00,66.1,42.8,30.07,ENE,58,11.0,17.0,43,0.00,,,0.00,VWS V14.01,2013-05-23 20:00:00,
2013-05-23 15:05:00,66.1,41.5,30.07,SE,136,9.0,16.0,41,0.00,,,0.00,VWS V14.01,2013-05-23 20:05:00,
2013-05-23 15:10:00,66.2,40.3,30.07,ESE,114,7.0,19.0,39,0.00,,,0.00,VWS V14.01,2013-05-23 20:10:00,
2013-05-23 15:15:00,65.8,40.6,30.07,ESE,102,10.0,19.0,40,0.00,,,0.00,VWS V14.01,2013-05-23 20:15:00,
2013-05-23 15:20:00,65.6,39.8,30.06,SE,124,12.0,17.0,39,0.00,,,0.00,VWS V14.01,2013-05-23 20:20:00,
2013-05-23 15:25:00,65.8,39.3,30.06,ENE,78,9.0,24.0,38,0.00,,,0.00,VWS V14.01,2013-05-23 20:25:00,
2013-05-23 15:30:00,65.9,41.4,30.06,ESE,105,8.0,24.0,41,0.00,,,0.00,VWS V14.01,2013-05-23 20:30:00,
2013-05-23 15:35:00,65.8,40.0,30.06,ENE,58,8.0,17.0,39,0.00,,,0.00,VWS V14.01,2013-05-23 20:35:00,
2013-05-23 15:40:00,66.1,39.6,30.06,East,95,13.0,22.0,38,0.00,,,0.00,VWS V14.01,2013-05-23 20:40:00,
2013-05-23 15:45:00,66.3,39.1,30.05,SE,146,11.0,22.0,37,0.00,,,0.00,VWS V14.01,2013-05-23 20:45:00,
2013-05-23 15:50:00,65.6,37.0,30.05,ESE,103,5.0,22.0,35,0.00,,,0.00,VWS V14.01,2013-05-23 20:50:00,
2013-05-23 15:55:00,66.5,39.2,30.05,SSE,163,8.0,22.0,37,0.00,,,0.00,VWS V14.01,2013-05-23 20:55:00,
2013-05-23 16:00:00,66.5,39.2,30.05,ESE,123,14.0,23.0,37,0.00,,,0.00,VWS V14.01,2013-05-23 21:00:00,
2013-05-23 16:05:00,66.0,38.1,30.04,ESE,110,7.0,18.0,36,0.00,,,0.00,VWS V14.01,2013-05-23 21:05:00,
2013-05-23 16:10:00,66.1,38.9,30.04,East,96,8.0,18.0,37,0.00,,,0.00,VWS V14.01,2013-05-23 21:10:00,
2013-05-23 16:15:00,66.3,39.1,30.04,East,94,8.0,18.0,37,0.00,,,0.00,VWS V14.01,2013-05-23 21:15:00,
2013-05-23 16:20:00,65.9,38.0,30.04,East,89,10.0,18.0,36,0.00,,,0.00,VWS V14.01,2013-05-23 21:20:00,
2013-05-23 16:25:00,66.2,39.0,30.03,ENE,78,4.0,18.0,37,0.00,,,0.00,VWS V14.01,2013-05-23 21:25:00,
2013-05-23 16:30:00,66.3,38.4,30.03,East,83,5.0,18.0,36,0.00,,,0.00,VWS V14.01,2013-05-23 21:30:00,
2013-05-23 16:35:00,66.6,40.7,30.03,ESE,119,3.0,16.0,39,0.00,,,0.00,VWS V14.01,2013-05-23 21:35:00,
2013-05-23 16:40:00,66.5,38.5,30.03,East,94,9.0,16.0,36,0.00,,,0.00,VWS V14.01,2013-05-23 21:40:00,
2013-05-23 16:45:00,66.2,39.7,30.03,SE,127,9.0,20.0,38,0.00,,,0.00,VWS V14.01,2013-05-23 21:45:00,
2013-05-23 16:50:00,66.1,38.9,30.03,East,79,7.0,19.0,37,0.00,,,0.00,VWS V14.01,2013-05-23 21:50:00,
2013-05-23 16:55:00,66.1,38.9,30.03,ESE,112,7.0,19.0,37,0.00,,,0.00,VWS V14.01,2013-05-23 21:55:00,
2013-05-23 17:00:00,66.3,40.4,30.03,ESE,105,12.0,19.0,39,0.00,,,0.00,VWS V14.01,2013-05-23 22:00:00,
2013-05-23 17:05:00,66.2,39.7,30.03,ENE,76,12.0,23.0,38,0.00,,,0.00,VWS V14.01,2013-05-23 22:05:00,
2013-05-23 17:10:00,66.2,39.0,30.03,East,96,10.0,23.0,37,0.00,,,0.00,VWS V14.01,2013-05-23 22:10:00,
2013-05-23 17:15:00,66.4,38.5,30.03,ESE,111,8.0,23.0,36,0.00,,,0.00,VWS V14.01,2013-05-23 22:15:00,
2013-05-23 17:20:00,66.3,37.6,30.03,South,175,11.0,20.0,35,0.00,,,0.00,VWS V14.01,2013-05-23 22:20:00,
2013-05-23 17:25:00,66.3,37.6,30.03,SE,126,12.0,21.0,35,0.00,,,0.00,VWS V14.01,2013-05-23 22:25:00,
2013-05-23 17:30:00,66.6,37.9,30.03,SE,146,17.0,21.0,35,0.00,,,0.00,VWS V14.01,2013-05-23 22:30:00,
2013-05-23 17:35:00,66.4,38.5,30.02,ESE,110,10.0,21.0,36,0.00,,,0.00,VWS V14.01,2013-05-23 22:35:00,
2013-05-23 17:40:00,66.6,38.6,30.02,South,171,12.0,21.0,36,0.00,,,0.00,VWS V14.01,2013-05-23 22:40:00,
2013-05-23 17:45:00,66.4,37.0,30.02,ESE,121,12.0,21.0,34,0.00,,,0.00,VWS V14.01,2013-05-23 22:45:00,
2013-05-23 17:50:00,66.4,37.7,30.02,ESE,107,9.0,19.0,35,0.00,,,0.00,VWS V14.01,2013-05-23 22:50:00,
2013-05-23 17:55:00,66.3,39.1,30.02,ESE,117,5.0,19.0,37,0.00,,,0.00,VWS V14.01,2013-05-23 22:55:00,
2013-05-23 18:00:00,66.1,38.2,30.01,East,88,8.0,19.0,36,0.00,,,0.00,VWS V14.01,2013-05-23 23:00:00,
2013-05-23 18:04:00,66.0,38.1,30.02,East,100,11.0,19.0,36,0.00,,,0.00,VWS V14.01,2013-05-23 23:04:00,
2013-05-23 18:09:00,66.0,38.8,30.02,ESE,107,9.0,19.0,37,0.00,,,0.00,VWS V14.01,2013-05-23 23:09:00,
2013-05-23 18:14:00,66.0,38.8,30.02,East,80,8.0,21.0,37,0.00,,,0.00,VWS V14.01,2013-05-23 23:14:00,
2013-05-23 18:15:00,66.3,39.1,30.03,East,99,9.0,23.0,37,0.00,,,0.00,VWS V14.01,2013-05-23 23:15:00,
2013-05-23 18:19:00,66.0,39.5,30.01,ESE,106,2.0,17.0,38,0.00,,,0.00,VWS V14.01,2013-05-23 23:19:00,
2013-05-23 18:24:00,66.2,39.0,30.01,ESE,119,12.0,23.0,37,0.00,,,0.00,VWS V14.01,2013-05-23 23:24:00,
2013-05-23 18:29:00,66.1,39.6,30.01,ESE,107,4.0,23.0,38,0.00,,,0.00,VWS V14.01,2013-05-23 23:29:00,
2013-05-23 18:30:00,66.6,37.9,30.03,SSE,152,12.0,21.0,35,0.00,,,0.00,VWS V14.01,2013-05-23 23:30:00,
2013-05-23 18:34:00,66.0,38.1,30.01,SE,146,11.0,23.0,36,0.00,,,0.00,VWS V14.01,2013-05-23 23:34:00,
2013-05-23 18:39:00,65.8,38.6,30.01,ESE,111,11.0,23.0,37,0.00,,,0.00,VWS V14.01,2013-05-23 23:39:00,
2013-05-23 18:44:00,66.0,38.1,30.01,SSE,152,15.0,23.0,36,0.00,,,0.00,VWS V14.01,2013-05-23 23:44:00,
2013-05-23 18:45:00,66.4,37.0,30.02,East,86,7.0,21.0,34,0.00,,,0.00,VWS V14.01,2013-05-23 23:45:00,
2013-05-23 18:49:00,65.8,37.2,30.01,SE,138,11.0,19.0,35,0.00,,,0.00,VWS V14.01,2013-05-23 23:49:00,
2013-05-23 18:54:00,65.7,37.1,30.01,ESE,116,10.0,20.0,35,0.00,,,0.00,VWS V14.01,2013-05-23 23:54:00,
2013-05-23 18:59:00,65.7,37.1,30.01,ESE,122,10.0,20.0,35,0.00,,,0.00,VWS V14.01,2013-05-23 23:59:00,
2013-05-23 19:00:00,66.2,38.3,30.01,ESE,113,11.0,19.0,36,0.00,,,0.00,VWS V14.01,2013-05-24 00:00:00,
2013-05-23 19:04:00,65.5,36.9,30.01,ESE,120,12.0,23.0,35,0.00,,,0.00,VWS V14.01,2013-05-24 00:04:00,
2013-05-23 19:09:00,65.4,36.8,30.01,ESE,103,10.0,26.0,35,0.00,,,0.00,VWS V14.01,2013-05-24 00:09:00,
2013-05-23 19:14:00,65.4,36.8,30.00,East,93,15.0,26.0,35,0.00,,,0.00,VWS V14.01,2013-05-24 00:14:00,
2013-05-23 19:19:00,65.4,36.8,30.01,SE,130,9.0,19.0,35,0.00,,,0.00,VWS V14.01,2013-05-24 00:19:00,
2013-05-23 19:24:00,65.2,36.7,30.00,East,95,14.0,23.0,35,0.00,,,0.00,VWS V14.01,2013-05-24 00:24:00,
2013-05-23 19:29:00,65.0,37.2,30.00,East,94,5.0,23.0,36,0.00,,,0.00,VWS V14.01,2013-05-24 00:29:00,
2013-05-23 19:30:00,66.2,39.7,30.01,SE,138,11.0,23.0,38,0.00,,,0.00,VWS V14.01,2013-05-24 00:30:00,
2013-05-23 19:34:00,64.7,37.7,30.00,ESE,113,11.0,21.0,37,0.00,,,0.00,VWS V14.01,2013-05-24 00:34:00,
2013-05-23 19:39:00,64.6,37.6,30.00,ESE,115,10.0,21.0,37,0.00,,,0.00,VWS V14.01,2013-05-24 00:39:00,
2013-05-23 19:44:00,64.5,38.2,30.00,East,96,5.0,21.0,38,0.00,,,0.00,VWS V14.01,2013-05-24 00:44:00,
2013-05-23 19:45:00,66.0,38.1,30.01,SE,136,12.0,23.0,36,0.00,,,0.00,VWS V14.01,2013-05-24 00:45:00,
2013-05-23 19:49:00,64.5,38.2,30.00,SE,132,15.0,15.0,38,0.00,,,0.00,VWS V14.01,2013-05-24 00:49:00,
2013-05-23 19:54:00,64.3,38.0,30.00,ESE,113,8.0,17.0,38,0.00,,,0.00,VWS V14.01,2013-05-24 00:54:00,
2013-05-23 19:59:00,64.0,37.7,30.00,ESE,106,9.0,17.0,38,0.00,,,0.00,VWS V14.01,2013-05-24 00:59:00,
2013-05-23 20:00:00,65.6,37.0,30.01,ESE,123,16.0,20.0,35,0.00,,,0.00,VWS V14.01,2013-05-24 01:00:00,
2013-05-23 20:04:00,63.7,38.8,30.00,East,84,6.0,16.0,40,0.00,,,0.00,VWS V14.01,2013-05-24 01:04:00,
2013-05-23 20:09:00,63.4,38.5,30.00,East,86,3.0,18.0,40,0.00,,,0.00,VWS V14.01,2013-05-24 01:09:00,
2013-05-23 20:14:00,63.2,38.9,30.00,East,100,3.0,18.0,41,0.00,,,0.00,VWS V14.01,2013-05-24 01:14:00,
2013-05-23 20:15:00,65.4,36.8,30.00,ENE,63,8.0,26.0,35,0.00,,,0.00,VWS V14.01,2013-05-24 01:15:00,
2013-05-23 20:19:00,63.0,38.8,30.00,SE,127,4.0,19.0,41,0.00,,,0.00,VWS V14.01,2013-05-24 01:19:00,
2013-05-23 20:24:00,62.8,39.2,30.00,SE,130,10.0,19.0,42,0.00,,,0.00,VWS V14.01,2013-05-24 01:24:00,
2013-05-23 20:29:00,62.5,39.5,29.99,ESE,110,8.0,19.0,43,0.00,,,0.00,VWS V14.01,2013-05-24 01:29:00,
2013-05-23 20:30:00,65.0,37.2,30.00,ENE,65,7.0,23.0,36,0.00,,,0.00,VWS V14.01,2013-05-24 01:30:00,
2013-05-23 20:34:00,62.3,39.4,30.00,ESE,113,2.0,14.0,43,0.00,,,0.00,VWS V14.01,2013-05-24 01:34:00,
2013-05-23 20:39:00,62.2,38.7,30.00,East,82,6.0,14.0,42,0.00,,,0.00,VWS V14.01,2013-05-24 01:39:00,
2013-05-23 20:44:00,62.1,39.2,29.99,ESE,119,5.0,14.0,43,0.00,,,0.00,VWS V14.01,2013-05-24 01:44:00,
2013-05-23 20:45:00,64.6,38.2,30.00,East,101,7.0,21.0,38,0.00,,,0.00,VWS V14.01,2013-05-24 01:45:00,
2013-05-23 20:49:00,61.9,39.0,29.99,East,93,6.0,9.0,43,0.00,,,0.00,VWS V14.01,2013-05-24 01:49:00,
2013-05-23 20:54:00,61.6,39.3,29.99,ESE,108,3.0,12.0,44,0.00,,,0.00,VWS V14.01,2013-05-24 01:54:00,
2013-05-23 20:59:00,61.4,39.1,29.99,ESE,115,5.0,12.0,44,0.00,,,0.00,VWS V14.01,2013-05-24 01:59:00,
2013-05-23 21:00:00,64.0,38.4,30.00,East,81,6.0,17.0,39,0.00,,,0.00,VWS V14.01,2013-05-24 02:00:00,
2013-05-23 21:04:00,61.1,38.9,29.99,ESE,112,3.0,13.0,44,0.00,,,0.00,VWS V14.01,2013-05-24 02:04:00,
2013-05-23 21:09:00,60.9,38.7,29.99,East,101,7.0,13.0,44,0.00,,,0.00,VWS V14.01,2013-05-24 02:09:00,
2013-05-23 21:14:00,60.8,38.6,29.99,ESE,106,9.0,13.0,44,0.00,,,0.00,VWS V14.01,2013-05-24 02:14:00,
2013-05-23 21:15:00,63.2,38.9,30.00,East,99,8.0,18.0,41,0.00,,,0.00,VWS V14.01,2013-05-24 02:15:00,
2013-05-23 21:19:00,60.5,38.9,29.99,East,96,9.0,13.0,45,0.00,,,0.00,VWS V14.01,2013-05-24 02:19:00,
2013-05-23 21:24:00,60.4,38.8,29.99,East,94,5.0,13.0,45,0.00,,,0.00,VWS V14.01,2013-05-24 02:24:00,
2013-05-23 21:29:00,60.3,39.3,29.98,East,84,5.0,13.0,46,0.00,,,0.00,VWS V14.01,2013-05-24 02:29:00,
2013-05-23 21:30:00,62.4,39.5,30.00,ESE,111,9.0,19.0,43,0.00,,,0.00,VWS V14.01,2013-05-24 02:30:00,
2013-05-23 21:34:00,60.0,39.0,29.98,East,92,11.0,11.0,46,0.00,,,0.00,VWS V14.01,2013-05-24 02:34:00,
2013-05-23 21:39:00,59.8,39.4,29.98,ESE,119,9.0,11.0,47,0.00,,,0.00,VWS V14.01,2013-05-24 02:39:00,
2013-05-23 21:44:00,59.6,39.8,29.99,SE,131,6.0,11.0,48,0.00,,,0.00,VWS V14.01,2013-05-24 02:44:00,
2013-05-23 21:45:00,62.0,39.1,29.99,East,90,8.0,14.0,43,0.00,,,0.00,VWS V14.01,2013-05-24 02:45:00,
2013-05-23 21:49:00,59.5,39.7,29.99,East,100,5.0,14.0,48,0.00,,,0.00,VWS V14.01,2013-05-24 02:49:00,
2013-05-23 21:54:00,59.2,39.4,29.99,East,98,6.0,14.0,48,0.00,,,0.00,VWS V14.01,2013-05-24 02:54:00,
2013-05-23 21:59:00,59.0,39.7,29.99,ESE,109,9.0,14.0,49,0.00,,,0.00,VWS V14.01,2013-05-24 02:59:00,
2013-05-23 22:00:00,61.3,39.0,29.99,ESE,120,5.0,12.0,44,0.00,,,0.00,VWS V14.01,2013-05-24 03:00:00,
2013-05-23 22:04:00,58.6,39.9,29.99,ESE,109,3.0,10.0,50,0.00,,,0.00,VWS V14.01,2013-05-24 03:04:00,
2013-05-23 22:09:00,58.3,40.6,29.99,East,98,2.0,13.0,52,0.00,,,0.00,VWS V14.01,2013-05-24 03:09:00,
2013-05-23 22:14:00,58.0,40.8,29.99,ESE,111,5.0,13.0,53,0.00,,,0.00,VWS V14.01,2013-05-24 03:14:00,
2013-05-23 22:15:00,60.7,38.5,29.99,East,95,7.0,13.0,44,0.00,,,0.00,VWS V14.01,2013-05-24 03:15:00,
2013-05-23 22:19:00,57.8,41.1,29.99,East,96,3.0,8.0,54,0.00,,,0.00,VWS V14.01,2013-05-24 03:19:00,
2013-05-23 22:24:00,57.6,41.4,30.00,East,90,3.0,9.0,55,0.00,,,0.00,VWS V14.01,2013-05-24 03:24:00,
2013-05-23 22:29:00,57.4,41.2,30.00,East,99,5.0,11.0,55,0.00,,,0.00,VWS V14.01,2013-05-24 03:29:00,
2013-05-23 22:30:00,60.2,39.2,29.98,ESE,103,3.0,13.0,46,0.00,,,0.00,VWS V14.01,2013-05-24 03:30:00,
2013-05-23 22:34:00,57.3,41.6,30.00,East,83,5.0,11.0,56,0.00,,,0.00,VWS V14.01,2013-05-24 03:34:00,
2013-05-23 22:39:00,57.2,41.5,30.00,ESE,119,2.0,11.0,56,0.00,,,0.00,VWS V14.01,2013-05-24 03:39:00,
2013-05-23 22:44:00,57.0,41.3,30.00,SE,133,7.0,13.0,56,0.00,,,0.00,VWS V14.01,2013-05-24 03:44:00,
2013-05-23 22:45:00,59.6,39.7,29.98,East,96,6.0,12.0,48,0.00,,,0.00,VWS V14.01,2013-05-24 03:45:00,
2013-05-23 22:49:00,56.9,41.2,30.00,ESE,107,3.0,10.0,56,0.00,,,0.00,VWS V14.01,2013-05-24 03:49:00,
2013-05-23 22:54:00,56.8,41.2,30.00,East,85,3.0,12.0,56,0.00,,,0.00,VWS V14.01,2013-05-24 03:54:00,
2013-05-23 22:59:00,56.8,41.2,30.00,ESE,105,7.0,13.0,56,0.00,,,0.00,VWS V14.01,2013-05-24 03:59:00,
2013-05-23 23:00:00,58.9,40.2,29.99,East,96,7.0,14.0,50,0.00,,,0.00,VWS V14.01,2013-05-24 04:00:00,
2013-05-23 23:01:00,56.8,41.2,30.00,ESE,105,5.0,8.0,56,0.00,,,0.00,VWS V14.01,2013-05-24 04:01:00,
2013-05-23 23:02:00,56.7,41.1,30.00,East,86,5.0,12.0,56,0.00,,,0.00,VWS V14.01,2013-05-24 04:02:00,
2013-05-23 23:07:00,56.7,41.1,30.00,East,98,5.0,12.0,56,0.00,,,0.00,VWS V14.01,2013-05-24 04:07:00,
2013-05-23 23:12:00,56.6,41.0,30.00,East,93,3.0,14.0,56,0.00,,,0.00,VWS V14.01,2013-05-24 04:12:00,
2013-05-23 23:15:00,58.0,41.3,29.99,East,89,1.0,13.0,54,0.00,,,0.00,VWS V14.01,2013-05-24 04:15:00,
2013-05-23 23:17:00,56.4,40.8,30.00,ESE,113,8.0,14.0,56,0.00,,,0.00,VWS V14.01,2013-05-24 04:17:00,
2013-05-23 23:22:00,56.3,41.1,30.00,East,101,7.0,14.0,57,0.00,,,0.00,VWS V14.01,2013-05-24 04:22:00,
2013-05-23 23:27:00,56.2,41.0,30.00,East,90,6.0,15.0,57,0.00,,,0.00,VWS V14.01,2013-05-24 04:27:00,
2013-05-23 23:30:00,57.4,41.2,30.00,East,96,6.0,11.0,55,0.00,,,0.00,VWS V14.01,2013-05-24 04:30:00,
2013-05-23 23:32:00,55.9,40.8,30.00,ESE,105,7.0,14.0,57,0.00,,,0.00,VWS V14.01,2013-05-24 04:32:00,
2013-05-23 23:37:00,55.9,41.2,30.00,East,100,2.0,14.0,58,0.00,,,0.00,VWS V14.01,2013-05-24 04:37:00,
2013-05-23 23:42:00,55.7,41.0,30.00,SE,130,6.0,14.0,58,0.00,,,0.00,VWS V14.01,2013-05-24 04:42:00,
2013-05-23 23:45:00,57.0,41.3,30.00,East,82,2.0,13.0,56,0.00,,,0.00,VWS V14.01,2013-05-24 04:45:00,
2013-05-23 23:47:00,55.7,41.0,30.00,ESE,105,4.0,9.0,58,0.00,,,0.00,VWS V14.01,2013-05-24 04:47:00,
2013-05-23 23:52:00,55.6,40.9,30.00,ESE,119,8.0,13.0,58,0.00,,,0.00,VWS V14.01,2013-05-24 04:52:00,
2013-05-23 23:57:00,55.4,41.2,30.00,SE,129,3.0,13.0,59,0.00,,,0.00,VWS V14.01,2013-05-24 04:57:00,